Regional Weather Roundup
Issued by NWS

Home | Current Version | Previous Version | Graphics & Text | Print | Product List | Glossary On
Versions: 1 2 3 4 5 6 7 8 9 10 11 12 13 14 15 16 17 18 19 20 21 22 23 24 25 26 27 28 29 30 31 32 33 34 35 36 37 38 39 40 41 42 43 44 45 46 47 48 49 50
000
ASUS43 KLSX 182207
RWRMO

WEATHER SUMMARY FOR MISSOURI
NATIONAL WEATHER SERVICE SPRINGFIELD MO
500 PM CDT FRI AUG 18 2017

NOTE: "FAIR" INDICATES FEW OR NO CLOUDS BELOW 12,000 FEET WITH NO
       SIGNIFICANT WEATHER AND/OR OBSTRUCTIONS TO VISIBILITY.
       CURRENT SKY AND/OR WEATHER CONDITIONS ARE NOT AVAILABLE FOR
       CHILLICOTHE AND FARMINGTON.

MOZ001>031-035>038-043-044-053-054-182300-
...NORTHERN AND WESTERN MISSOURI...

CITY           SKY/WX    TMP DP  RH WIND       PRES   REMARKS
KANSAS CTY INT MOSUNNY   87  67  51 SW7       29.90F HX  90
KANSAS C DTWN  SUNNY     89  69  51 SW9       29.88F HX  93
LEE`S SUMMIT   SUNNY     86  70  58 SW10      29.91F HX  90
ST JOSEPH      MOSUNNY   86  69  56 N10       29.88F HX  90
CHILLICOTHE      N/A     89  65  44 S7        29.89R HX  91
KIRKSVILLE     SUNNY     87  61  41 SW13G18   29.89S

$$
MOZ066>068-077>081-088>096-101>105-182300-
...SOUTHWEST MISSOURI...

CITY           SKY/WX    TMP DP  RH WIND       PRES   REMARKS
SPRINGFIELD    CLOUDY    85  73  67 SW12      29.96F HX  91
JOPLIN         SUNNY     89  74  60 SW9       29.94F HX  98
BRANSON        PTSUNNY   82  73  74 CALM      29.98F

$$
MOZ032>034-039>042-045>050-055>058-069>072-182300-
...CENTRAL MISSOURI...

CITY           SKY/WX    TMP DP  RH WIND       PRES   REMARKS
COLUMBIA       PTSUNNY   81  67  62 S9        29.94F
JEFFERSON CITY CLOUDY    83  71  67 S6        29.93F
ROLLA          CLOUDY    78  69  73 S6        29.98F
SEDALIA        SUNNY     86  68  54 SW12      29.93F
WHITEMAN AFB   SUNNY     85  74  69 SW14      29.90F HX  92
WARRENSBURG    SUNNY     82  72  69 S7        29.91F
OSAGE BEACH    MOSUNNY   81  72  74 S6        29.96F

$$
MOZ051-052-059>065-182300-
...EAST CENTRAL MISSOURI...

CITY           SKY/WX    TMP DP  RH WIND       PRES   REMARKS
ST LOUIS INTL  CLOUDY    88  63  43 W13       29.92F
SPIRIT OF STL  MOSUNNY   84  68  58 SW6       29.91F
ST CHARLES     CLOUDY    86  64  47 CALM      29.90F

$$
MOZ072>076-082>087-097>100-106>115-182300-
...SOUTH CENTRAL AND SOUTHEAST MISSOURI...

CITY           SKY/WX    TMP DP  RH WIND       PRES   REMARKS
CAPE GIRARDEAU SUNNY     86  65  49 CALM      29.94S
FARMINGTON     CLOUDY    85  66  53 SW5       29.97F
POPLAR BLUFF   SUNNY     86  69  56 SW8       29.95S HX  90
WEST PLAINS    CLOUDY    83  63  50 SW5       30.01S

$$



USA.gov is the U.S. government's official web portal to all federal, state and local government web resources and services.